This is the latest recevied weather packets stored in our database for station/object OE5HCE. If no packets are shown the sender has not sent any weather packets the latest 10 day(s).
| Time | Temp. | Humidity | Pressure | Rain* | Wind** | Luminosity | Snow |
|---|---|---|---|---|---|---|---|
| 1787866212 | 22.22° C | 69% | 1013.9 hPa | 0 mm | - | 0 W/m² | - |
| 1787865312 | 22.22° C | 68% | 1013.9 hPa | 0 mm | - | 0 W/m² | - |
| 1787864412 | 22.78° C | 68% | 1013.9 hPa | 0 mm | - | 0 W/m² | - |
| 1787863516 | 22.78° C | 67% | 1014.1 hPa | 0 mm | - | 0 W/m² | - |
| 1787862610 | 23.33° C | 67% | 1014.1 hPa | 0 mm | - | 0 W/m² | - |
| 1787861710 | 23.33° C | 66% | 1014 hPa | 0 mm | - | 0 W/m² | - |
| 1787860810 | 23.33° C | 66% | 1014 hPa | 0 mm | - | 0 W/m² | - |
| 1787859909 | 23.33° C | 66% | 1014 hPa | 0 mm | - | 0 W/m² | - |
| 1787859009 | 23.89° C | 66% | 1014 hPa | 0 mm | - | 0 W/m² | - |
| 1787858109 | 23.89° C | 66% | 1014.2 hPa | 0 mm | - | 0 W/m² | - |
| 1787857207 | 23.89° C | 65% | 1014.2 hPa | 0 mm | - | 0 W/m² | - |
| 1787856307 | 23.89° C | 65% | 1014.2 hPa | 0 mm | - | 0 W/m² | - |
| 1787855406 | 24.44° C | 65% | 1014.1 hPa | 0 mm | - | 0 W/m² | - |
| 1787854506 | 24.44° C | 65% | 1013.9 hPa | 0 mm | - | 0 W/m² | - |
| 1787853608 | 25° C | 64% | 1013.8 hPa | 0 mm | - | 0 W/m² | - |
| 1787852706 | 25° C | 63% | 1013.7 hPa | 0 mm | - | 5 W/m² | - |
| 1787851804 | 25.56° C | 62% | 1013.8 hPa | 0 mm | - | 19 W/m² | - |
| 1787850905 | 25.56° C | 62% | 1013.7 hPa | 0 mm | - | 42 W/m² | - |
| 1787850003 | 26.11° C | 61% | 1013.9 hPa | 0 mm | - | 28 W/m² | - |
| 1787849101 | 26.67° C | 60% | 1014 hPa | 0 mm | - | 35 W/m² | - |
| 1787848260 | 27.22° C | 59% | 1014.1 hPa | 0 mm | - | 51 W/m² | - |
| 1787847361 | 27.22° C | 58% | 1014.1 hPa | 0 mm | - | 90 W/m² | - |
| 1787846461 | 28.33° C | 56% | 1014.1 hPa | 0 mm | - | 167 W/m² | - |
| 1787845561 | 27.78° C | 55% | 1014.2 hPa | 0 mm | - | 204 W/m² | - |
| 1787844657 | 28.89° C | 54% | 1014.2 hPa | 0 mm | - | 109 W/m² | - |
* Rain latest hour (hover to see other rain measurements)
** Current wind speed in m/s (hover to see current wind gust speed)